Location: Unspecified
(0.0000°N, 0.0000°E)
Time: 08:36:37
(UTC+00:00)

BEESAT - Pass Details

Date: 27 May 2019
Orbit: 701 x 709 km, 98.6° (Epoch: 16 June)

Event Time Altitude Azimuth Distance (km) Brightness Sun altitude
Rises 04:44:15 0° 174° (S) 3,095 ? -16.9°
Reaches altitude 10° 04:46:31 10° 177° (S) 2,175 ? -16.4°
Maximum altitude 04:51:14 62° 257° (WSW) 792 ? -15.3°
Drops below altitude 10° 04:55:56 10° 338° (NNW) 2,171 ? -14.2°
Sets 04:58:12 0° 342° (NNW) 3,087 ? -13.7°
